This demonstration page uses our WeatherBlox Daily Observations layout. Learn more.

Left ArrowRight Arrow

34.16533, -84.80231

Hourly Observations for July 7, 2020

Temp ( °F °C ) Dew Point ( °F °C ) Humidity (%) Winds ( mph kmh ) Pressure ( in mb ) Visibility ( mi km ) Precip ( " mm )
12:40 am 00:40 Cloudy 77 25 70 21.1 79 79 Calm 29.99 1016 10 16 0.00 0.00
12:53 am 00:53 Cloudy 77 25 70 21.1 79 79 VRB 3 6 29.98 1015 10 16 0.00 0.00
1:53 am 01:53 Cloudy 76 24.4 70 21.1 82 82 Calm 29.97 1015 10 16 0.00 0.00
2:53 am 02:53 Cloudy 76 24.4 70 21.1 82 82 Calm 29.95 1014 10 16 0.00 0.00
3:16 am 03:16 Cloudy 76 24.4 70 21.1 82 82 NE 5 7 29.97 1015 10 16 0.00 0.00
3:51 am 03:51 Cloudy 75 24 70 21 83 83 ENE 3 6 29.96 1015 10 16 0.00 0.00
3:53 am 03:53 Cloudy 75 23.9 70 21.1 84 84 NE 3 6 29.96 1014 10 16 0.00 0.00
4:01 am 04:01 Cloudy 75 23.9 70 21.1 84 84 NE 3 6 29.97 1015 10 16 0.00 0.00
4:53 am 04:53 Cloudy 75 23.9 70 21.1 84 84 Calm 29.95 1014 10 16 0.00 0.00
5:04 am 05:04 Cloudy 75 23.9 70 21.1 84 84 NE 3 6 29.96 1015 10 16 0.00 0.00
5:45 am 05:45 Cloudy 74 23.3 70 21.1 88 88 Calm 29.97 1015 10 16 0.00 0.00
5:53 am 05:53 Cloudy 75 23.9 70 21.1 84 84 Calm 29.96 1015 10 16 0.00 0.00
6:53 am 06:53 Cloudy 75 23.9 69 20.6 82 82 NE 3 6 29.97 1015 10 16 0.00 0.00
7:24 am 07:24 Cloudy 75 23.9 69 20.6 82 82 Calm 29.98 1015 10 16 0.00 0.00
7:53 am 07:53 Cloudy 76 24.4 70 21.1 82 82 NE 6 9 29.98 1015 10 16 0.00 0.00
8:53 am 08:53 Cloudy 77 25 70 21.1 79 79 Calm 29.99 1016 10 16 0.00 0.00
9:53 am 09:53 Cloudy 78 25.6 70 21.1 76 76 NE 6 9 29.99 1016 10 16 0.00 0.00
10:53 am 10:53 Cloudy 79 26.1 70 21.1 74 74 VRB 3 6 30.00 1016 10 16 0.00 0.00
11:53 am 11:53 Cloudy 81 27.2 70 21.1 69 69 Calm 30.00 1016 10 16 0.00 0.00
12:39 pm 12:39 Mostly Cloudy 81 27.2 73 22.8 77 77 ENE 6 9 30.00 1016 10 16 0.01 0.25
12:53 pm 12:53 Partly Cloudy 82 27.8 73 22.8 74 74 ENE 6 9 30.00 1016 10 16 0.01 0.25
1:53 pm 13:53 Cloudy with Rain 80 26.7 72 22.2 76 76 NE 7 11 29.98 1015 6 10 0.01 0.25
2:53 pm 14:53 Partly Cloudy 83 28.3 72 22.2 70 70 Calm 29.95 1014 10 16 0.01 0.25
3:53 pm 15:53 Sunny 86 30 71 21.7 61 61 Calm 29.93 1013 10 16 0.00 0.00
4:53 pm 16:53 Mostly Sunny 87 30.6 72 22.2 61 61 N 6 9 29.90 1013 10 16 0.00 0.00
5:53 pm 17:53 Sunny 89 31.7 71 21.7 55 55 N 6 9 29.90 1012 10 16 0.00 0.00
6:53 pm 18:53 Partly Cloudy 83 28.3 74 23.3 74 74 E 3 6 29.90 1013 10 16 0.07 1.78
7:53 pm 19:53 Mostly Cloudy 83 28.3 73 22.8 72 72 Calm 29.91 1013 10 16 0.00 0.00
8:53 pm 20:53 Mostly Cloudy 81 27.2 73 22.8 77 77 Calm 29.92 1013 10 16 0.00 0.00
9:53 pm 21:53 Clear 77 25 73 22.8 88 88 Calm 29.92 1013 10 16 0.00 0.00
10:46 pm 22:46 Mostly Cloudy with Thunderstorms 76 24.4 73 22.8 91 91 Calm 29.96 1015 10 16 0.00 0.00
10:53 pm 22:53 Mostly Cloudy with Thunderstorms 76 24.4 73 22.8 91 91 Calm 29.94 1014 10 16 0.00 0.00
11:01 pm 23:01 Mostly Cloudy 76 24.4 73 22.8 91 91 Calm 29.96 1015 10 16 0.00 0.00
11:53 pm 23:53 Mostly Cloudy 78 25.6 70 21.1 76 76 Calm 29.96 1015 10 16 0.00 0.00

Powered by AerisWeather